^^
Saratoga-Weather Station Historical Data
Daily Summary for June 20, 2022 Units:  English    Metric   Both
Daily Weekly Monthly Yearly Custom
  High: Low: Average:
Temperature: 72.3 °F 58.6 °F 66.6 °F
Dew Point: 64.4 °F 50.5 °F 58.6 °F
Humidity: 94% 56% 77%
Wind Speed: 10.1mph 0mph 2.1mph
Wind Gust: 15mph - -
Wind- - South
Pressure: 30 in 29.7 in -
Precipitation: 0.13 in    
Historical Graphs
 
 
Tabular Data for June 20, 2022
Time Temperature Dew Point Pressure Wind Wind Speed Wind Gust Humidity Rainfall Rate (Hourly) solar
00:04 72.3 °F 59.9 °F 29.7 in Calm   3 mph 65% 0 in 0 W/m2
00:09 72.3 °F 60.3 °F 29.7 in Calm   2 mph 66% 0 in 0 W/m2
00:14 72.1 °F 60.1 °F 29.7 in NNW 2.9 mph 3 mph 66% 0 in 0 W/m2
00:19 72.1 °F 60.1 °F 29.7 in ENE 0.9 mph 1 mph 66% 0 in 0 W/m2
00:24 72 °F 59.9 °F 29.7 in Calm   2 mph 66% 0 in 0 W/m2
00:29 72 °F 59.9 °F 29.7 in Calm   4 mph 66% 0 in 0 W/m2
00:34 71.8 °F 59.7 °F 29.7 in NW 0.9 mph 4 mph 66% 0 in 0 W/m2
00:39 71.8 °F 59.7 °F 29.7 in WSW 2 mph 5 mph 66% 0 in 0 W/m2
00:44 71.6 °F 59.7 °F 29.7 in NNE 2 mph 4 mph 66% 0 in 0 W/m2
00:49 71.6 °F 59.7 °F 29.7 in NE 0.9 mph 5 mph 66% 0 in 0 W/m2
00:55 71.4 °F 59.5 °F 29.7 in NE 0.9 mph 5 mph 66% 0 in 0 W/m2
01:00 71.2 °F 59.4 °F 29.7 in South 2 mph 3 mph 66% 0 in 0 W/m2
01:05 71.2 °F 59.4 °F 29.7 in NW 0.9 mph 2 mph 66% 0 in 0 W/m2
01:10 71.2 °F 59.4 °F 29.7 in North 2.9 mph 5 mph 66% 0 in 0 W/m2
01:15 71.1 °F 59.2 °F 29.7 in NNE 0.9 mph 5 mph 66% 0 in 0 W/m2
01:20 71.1 °F 59.2 °F 29.7 in NNW 2 mph 5 mph 66% 0 in 0 W/m2
01:25 71.1 °F 59.2 °F 29.7 in NW 2 mph 2 mph 66% 0 in 0 W/m2
01:30 70.9 °F 59.4 °F 29.7 in ENE 0.9 mph 3 mph 67% 0 in 0 W/m2
01:35 70.9 °F 59.4 °F 29.7 in ENE 0.9 mph 4 mph 67% 0 in 0 W/m2
01:40 70.9 °F 59.4 °F 29.8 in WNW 10.1 mph 10 mph 67% 0 in 0 W/m2
01:45 70.7 °F 59.2 °F 29.8 in SSW 2.9 mph 8 mph 67% 0 in 0 W/m2
01:50 70.5 °F 59 °F 29.8 in WNW 2.9 mph 7 mph 67% 0 in 0 W/m2
01:55 70.5 °F 59 °F 29.8 in West 6.9 mph 14 mph 67% 0 in 0 W/m2
02:00 70.5 °F 59 °F 29.8 in WNW 2.9 mph 6 mph 67% 0 in 0 W/m2
02:05 70.5 °F 59 °F 29.8 in NNW 2.9 mph 14 mph 67% 0 in 0 W/m2
02:10 70.3 °F 58.8 °F 29.8 in West 6.9 mph 11 mph 67% 0 in 0 W/m2
02:15 69.8 °F 58.8 °F 29.8 in West 6 mph 11 mph 68% 0 in 0 W/m2
02:20 69.4 °F 58.5 °F 29.8 in North 10.1 mph 10 mph 68% 0 in 0 W/m2
02:25 69.1 °F 58.5 °F 29.8 in WNW 2 mph 10 mph 69% 0 in 0 W/m2
02:30 69.1 °F 58.5 °F 29.8 in North 2.9 mph 8 mph 69% 0 in 0 W/m2
02:35 68.9 °F 58.6 °F 29.8 in WNW 2.9 mph 8 mph 70% 0 in 0 W/m2
02:40 68.9 °F 58.6 °F 29.8 in Calm   2 mph 70% 0 in 0 W/m2
02:45 68.7 °F 58.5 °F 29.8 in ESE 0.9 mph 3 mph 70% 0 in 0 W/m2
02:50 68.5 °F 58.8 °F 29.8 in ENE 0.9 mph 1 mph 71% 0 in 0 W/m2
02:55 68.4 °F 59 °F 29.8 in East 2.9 mph 6 mph 72% 0 in 0 W/m2
03:00 68.4 °F 59.7 °F 29.8 in WNW 2 mph 5 mph 74% 0 in 0 W/m2
03:05 68.2 °F 59.5 °F 29.8 in ENE 2 mph 2 mph 74% 0 in 0 W/m2
03:10 67.8 °F 59.5 °F 29.8 in Calm   2 mph 75% 0 in 0 W/m2
03:15 67.8 °F 59.5 °F 29.8 in North 0.9 mph 2 mph 75% 0 in 0 W/m2
03:20 67.6 °F 59.7 °F 29.8 in NE 0.9 mph 4 mph 76% 0 in 0 W/m2
03:25 67.5 °F 59.5 °F 29.8 in North 4 mph 4 mph 76% 0 in 0 W/m2
03:30 67.3 °F 59.9 °F 29.8 in Calm   2 mph 77% 0 in 0 W/m2
03:35 67.3 °F 59.9 °F 29.8 in NW 2.9 mph 4 mph 77% 0 in 0 W/m2
03:40 67.1 °F 59.7 °F 29.8 in Calm   1 mph 77% 0 in 0 W/m2
03:45 66.9 °F 59.5 °F 29.8 in NW 2 mph 4 mph 77% 0 in 0 W/m2
03:50 66.9 °F 59.5 °F 29.8 in ENE 2 mph 2 mph 77% 0 in 0 W/m2
03:55 66.9 °F 59.5 °F 29.8 in NNW 0.9 mph 2 mph 77% 0 in 0 W/m2
04:00 66.9 °F 59.5 °F 29.8 in NNE 0.9 mph 3 mph 77% 0 in 0 W/m2
04:05 66.9 °F 59.9 °F 29.8 in ENE 2 mph 6 mph 78% 0 in 0 W/m2
04:10 66.7 °F 59.7 °F 29.8 in Calm   1 mph 78% 0 in 0 W/m2
04:15 66.7 °F 59.7 °F 29.8 in Calm   5 mph 78% 0 in 0 W/m2
04:20 66.7 °F 59.7 °F 29.8 in Calm   2 mph 78% 0 in 0 W/m2
04:25 66.6 °F 59.5 °F 29.8 in WNW 0.9 mph 2 mph 78% 0 in 0 W/m2
04:30 66.7 °F 59.7 °F 29.8 in WNW 8.1 mph 10 mph 78% 0 in 0 W/m2
04:35 66.7 °F 59.4 °F 29.8 in West 4 mph 13 mph 77% 0 in 0 W/m2
04:40 66.7 °F 60.1 °F 29.8 in WNW 4.9 mph 11 mph 79% 0 in 0 W/m2
04:45 66.6 °F 60.3 °F 29.8 in WNW 6.9 mph 15 mph 80% 0 in 0 W/m2
04:50 66.6 °F 60.3 °F 29.8 in WSW 2 mph 11 mph 80% 0 in 0 W/m2
04:55 66.6 °F 60.3 °F 29.8 in West 2 mph 14 mph 80% 0 in 0 W/m2
05:00 66.6 °F 60.3 °F 29.8 in WNW 2 mph 6 mph 80% 0 in 0 W/m2
05:05 66.6 °F 60.3 °F 29.8 in WNW 2 mph 3 mph 80% 0 in 0 W/m2
05:10 66.6 °F 60.3 °F 29.8 in WNW 2 mph 5 mph 80% 0 in 0 W/m2
05:15 66.6 °F 60.3 °F 29.8 in East 0.9 mph 1 mph 80% 0 in 0 W/m2
05:20 66.6 °F 60.3 °F 29.8 in Calm     80% 0 in 0 W/m2
05:25 66.6 °F 60.3 °F 29.8 in NNW 0.9 mph 2 mph 80% 0 in 0 W/m2
05:30 66.6 °F 60.3 °F 29.8 in West 2.9 mph 7 mph 80% 0 in 0 W/m2
05:35 66.6 °F 60.6 °F 29.9 in WNW 6 mph 9 mph 81% 0 in 0 W/m2
05:40 66 °F 60.6 °F 29.8 in NNW 0.9 mph 7 mph 83% 0.05 in 0 W/m2
05:45 65.5 °F 60.8 °F 29.8 in NNW 0.9 mph 2 mph 85% 0.06 in 0 W/m2
05:50 64.9 °F 61 °F 29.8 in WSW 2 mph 3 mph 87% 0.07 in 0 W/m2
05:55 64.6 °F 61 °F 29.8 in West 0.9 mph 2 mph 88% 0.07 in 5 W/m2
06:00 64.2 °F 61 °F 29.8 in West 2 mph 2 mph 89% 0.07 in 9 W/m2
06:05 64 °F 61 °F 29.8 in West 0.9 mph 6 mph 90% 0.07 in 7 W/m2
06:10 63.9 °F 60.8 °F 29.8 in Calm   3 mph 90% 0.07 in 0 W/m2
06:15 63.7 °F 61 °F 29.8 in West 0.9 mph 5 mph 91% 0.07 in 0 W/m2
06:20 63.7 °F 61 °F 29.8 in ESE 2 mph 2 mph 91% 0.08 in 0 W/m2
06:25 63.9 °F 61.5 °F 29.8 in Calm   2 mph 92% 0.09 in 0 W/m2
06:30 63.9 °F 61.5 °F 29.8 in East 2 mph 2 mph 92% 0.09 in 0 W/m2
06:35 63.7 °F 61.3 °F 29.8 in ENE 2.9 mph 6 mph 92% 0.09 in 0 W/m2
06:40 63.5 °F 61.2 °F 29.8 in NNE 0.9 mph 2 mph 92% 0.06 in 0 W/m2
06:45 63.3 °F 61 °F 29.8 in Calm   1 mph 92% 0.04 in 5 W/m2
06:50 63.5 °F 61.2 °F 29.8 in WNW 0.9 mph 2 mph 92% 0.05 in 9 W/m2
06:55 63.5 °F 61.2 °F 29.8 in Calm   1 mph 92% 0.06 in 18 W/m2
07:00 63.5 °F 61.5 °F 29.8 in ENE 2.9 mph 3 mph 93% 0.06 in 19 W/m2
07:05 63.7 °F 61.7 °F 29.8 in Calm     93% 0.06 in 12 W/m2
07:10 63.7 °F 61.7 °F 29.8 in Calm   3 mph 93% 0.06 in 18 W/m2
07:15 63.7 °F 61.7 °F 29.8 in Calm     93% 0.06 in 18 W/m2
07:20 63.7 °F 61.7 °F 29.8 in Calm   2 mph 93% 0.05 in 25 W/m2
07:25 63.7 °F 61.7 °F 29.8 in Calm   2 mph 93% 0.05 in 40 W/m2
07:30 63.7 °F 61.9 °F 29.8 in Calm     94% 0.04 in 54 W/m2
07:35 63.9 °F 62.1 °F 29.8 in Calm   2 mph 94% 0.04 in 63 W/m2
07:40 63.9 °F 62.1 °F 29.8 in Calm     94% 0.03 in 77 W/m2
07:45 63.9 °F 62.1 °F 29.8 in Calm     94% 0.03 in 91 W/m2
07:50 64 °F 62.2 °F 29.8 in Calm   2 mph 94% 0.02 in 104 W/m2
07:55 64.2 °F 62.4 °F 29.8 in Calm   4 mph 94% 0.01 in 91 W/m2
08:01 64.6 °F 62.8 °F 29.8 in Calm     94% 0.01 in 79 W/m2
08:06 64.6 °F 62.8 °F 29.8 in ENE 2 mph 2 mph 94% 0.01 in 90 W/m2
08:11 64.6 °F 62.8 °F 29.8 in Calm   1 mph 94% 0.01 in 139 W/m2
08:16 64.8 °F 63 °F 29.8 in Calm     94% 0.01 in 120 W/m2
08:21 64.8 °F 63 °F 29.8 in Calm   1 mph 94% 0.01 in 113 W/m2
08:26 64.8 °F 63 °F 29.8 in East 2.9 mph 3 mph 94% 0 in 120 W/m2
08:31 64.6 °F 62.8 °F 29.8 in East 2 mph 2 mph 94% 0 in 134 W/m2
08:36 64.8 °F 62.6 °F 29.8 in East 0.9 mph 2 mph 93% 0 in 142 W/m2
08:41 64.9 °F 63.1 °F 29.8 in Calm     94% 0 in 156 W/m2
08:46 64.9 °F 62.8 °F 29.8 in ESE 0.9 mph 2 mph 93% 0 in 165 W/m2
08:51 65.1 °F 63 °F 29.8 in WNW 0.9 mph 1 mph 93% 0 in 169 W/m2
08:56 65.1 °F 63 °F 29.8 in Calm     93% 0 in 213 W/m2
09:01 65.7 °F 63.5 °F 29.8 in West 0.9 mph 4 mph 93% 0 in 193 W/m2
09:06 65.7 °F 63 °F 29.8 in NW 0.9 mph 3 mph 91% 0 in 176 W/m2
09:11 65.8 °F 63.1 °F 29.9 in West 2 mph 4 mph 91% 0 in 169 W/m2
09:16 66 °F 63 °F 29.9 in West 2 mph 4 mph 90% 0 in 192 W/m2
09:21 66 °F 63 °F 29.9 in WSW 2 mph 2 mph 90% 0 in 218 W/m2
09:26 66.4 °F 63.3 °F 29.9 in WNW 0.9 mph 3 mph 90% 0 in 221 W/m2
09:31 66.6 °F 63.1 °F 29.9 in West 2 mph 4 mph 89% 0 in 274 W/m2
09:36 66.7 °F 63.7 °F 29.9 in WNW 2 mph 6 mph 90% 0 in 128 W/m2
09:41 66.9 °F 63.5 °F 29.9 in WSW 4 mph 6 mph 89% 0 in 97 W/m2
09:46 66.7 °F 63.3 °F 29.9 in West 6.9 mph 7 mph 89% 0 in 102 W/m2
09:51 66.6 °F 63.5 °F 29.9 in West 0.9 mph 3 mph 90% 0 in 149 W/m2
09:56 66.7 °F 63.7 °F 29.9 in SW 2.9 mph 5 mph 90% 0 in 155 W/m2
10:01 66.7 °F 63.7 °F 29.9 in Calm   2 mph 90% 0 in 100 W/m2
10:06 66.7 °F 63.3 °F 29.9 in NNW 2 mph 4 mph 89% 0 in 132 W/m2
10:11 66.7 °F 63.7 °F 29.9 in NW 2 mph 3 mph 90% 0 in 216 W/m2
10:16 66.9 °F 63.5 °F 29.9 in WNW 2 mph 5 mph 89% 0 in 241 W/m2
10:21 67.1 °F 63.7 °F 29.9 in WSW 2 mph 7 mph 89% 0 in 253 W/m2
10:26 67.5 °F 64.4 °F 29.9 in NW 6 mph 6 mph 90% 0 in 445 W/m2
10:31 68.4 °F 64.4 °F 29.9 in West 2.9 mph 5 mph 87% 0 in 330 W/m2
10:36 68.5 °F 64.2 °F 29.9 in NNW 4 mph 4 mph 86% 0 in 563 W/m2
10:41 69.1 °F 64 °F 29.9 in West 4 mph 7 mph 84% 0 in 547 W/m2
10:46 68.9 °F 63.9 °F 29.9 in WSW 2.9 mph 8 mph 84% 0 in 116 W/m2
10:51 68.7 °F 64 °F 29.9 in WSW 4 mph 5 mph 85% 0 in 214 W/m2
10:56 68.5 °F 63.5 °F 29.9 in NW 4.9 mph 7 mph 84% 0 in 260 W/m2
11:01 68.7 °F 63.7 °F 29.9 in NW 4 mph 7 mph 84% 0 in 262 W/m2
11:06 68.9 °F 63.9 °F 29.9 in WSW 4 mph 7 mph 84% 0 in 214 W/m2
11:11 68.5 °F 63.9 °F 29.9 in WNW 4 mph 6 mph 85% 0 in 165 W/m2
11:16 68.5 °F 63.9 °F 29.9 in WNW 2 mph 6 mph 85% 0 in 128 W/m2
11:21 68.5 °F 63.5 °F 29.9 in WSW 2.9 mph 7 mph 84% 0 in 54 W/m2
11:26 68.4 °F 63.7 °F 29.9 in WNW 4 mph 4 mph 85% 0 in 121 W/m2
11:31 68.2 °F 63.5 °F 29.9 in WSW 2.9 mph 8 mph 85% 0 in 376 W/m2
11:36 68.4 °F 64 °F 29.9 in WSW 2 mph 6 mph 86% 0 in 522 W/m2
11:41 69.1 °F 64.4 °F 29.9 in WSW 2.9 mph 6 mph 85% 0 in 455 W/m2
11:46 69.1 °F 63.7 °F 29.9 in West 2 mph 4 mph 83% 0 in 107 W/m2
11:51 68.5 °F 63.1 °F 29.9 in NNW 2 mph 7 mph 83% 0 in 47 W/m2
11:56 67.5 °F 62.4 °F 29.9 in NW 4.9 mph 7 mph 84% 0 in 148 W/m2
12:01 66.9 °F 62.2 °F 29.9 in NW 2 mph 8 mph 85% 0 in 188 W/m2
12:06 66.7 °F 62.4 °F 29.9 in WNW 2.9 mph 4 mph 86% 0 in 258 W/m2
12:11 66.9 °F 62.2 °F 29.9 in NW 2 mph 5 mph 85% 0 in 251 W/m2
12:16 66.9 °F 62.2 °F 29.9 in NW 2.9 mph 6 mph 85% 0 in 229 W/m2
12:21 66.9 °F 62.2 °F 29.9 in WNW 2.9 mph 8 mph 85% 0 in 132 W/m2
12:26 66.9 °F 62.2 °F 29.9 in WNW 2.9 mph 4 mph 85% 0 in 209 W/m2
12:31 66.9 °F 62.2 °F 29.9 in NNW 2 mph 8 mph 85% 0 in 232 W/m2
12:36 67.1 °F 62.1 °F 29.9 in NW 2 mph 7 mph 84% 0 in 135 W/m2
12:41 67.1 °F 62.1 °F 29.9 in WSW 2.9 mph 9 mph 84% 0 in 102 W/m2
12:46 66.6 °F 61.2 °F 29.9 in West 6.9 mph 9 mph 83% 0 in 146 W/m2
12:51 65.8 °F 60.8 °F 29.9 in West 6 mph 7 mph 84% 0 in 153 W/m2
12:56 65.7 °F 61 °F 29.9 in NW 0.9 mph 7 mph 85% 0 in 213 W/m2
13:01 66 °F 61 °F 29.9 in NNW 2.9 mph 10 mph 84% 0 in 264 W/m2
13:06 66 °F 61 °F 29.9 in West 4 mph 8 mph 84% 0 in 248 W/m2
13:11 65.8 °F 60.8 °F 29.9 in NNW 2 mph 8 mph 84% 0 in 385 W/m2
13:16 66 °F 61 °F 29.9 in East 0.9 mph 6 mph 84% 0 in 352 W/m2
13:21 66.4 °F 61.3 °F 29.9 in Calm   8 mph 84% 0 in 322 W/m2
13:26 66.7 °F 61.3 °F 29.9 in WSW 2.9 mph 4 mph 83% 0 in 264 W/m2
13:31 67.1 °F 61.3 °F 29.9 in Calm   3 mph 82% 0 in 276 W/m2
13:36 67.5 °F 62.1 °F 29.9 in NE 0.9 mph 4 mph 83% 0 in 346 W/m2
13:41 67.6 °F 61.5 °F 29.9 in Calm   2 mph 81% 0 in 308 W/m2
13:46 67.8 °F 61.7 °F 29.9 in NNE 0.9 mph 2 mph 81% 0 in 396 W/m2
13:51 68 °F 61.9 °F 29.9 in WNW 0.9 mph 4 mph 81% 0 in 329 W/m2
13:56 68.2 °F 61.7 °F 29.9 in NNE 0.9 mph 4 mph 80% 0 in 250 W/m2
14:01 68.4 °F 61.9 °F 29.9 in Calm   1 mph 80% 0 in 334 W/m2
14:06 68.5 °F 62.1 °F 29.9 in NNE 2 mph 5 mph 80% 0 in 244 W/m2
14:11 68.5 °F 61.7 °F 29.9 in NE 2.9 mph 4 mph 79% 0 in 246 W/m2
14:17 68.4 °F 61.5 °F 29.9 in NNW 2 mph 2 mph 79% 0 in 234 W/m2
14:22 68.4 °F 61.5 °F 29.9 in NE 4 mph 6 mph 79% 0 in 174 W/m2
14:27 68.2 °F 61.3 °F 29.9 in NNE 0.9 mph 4 mph 79% 0 in 141 W/m2
14:32 67.8 °F 61 °F 29.9 in West 2.9 mph 6 mph 79% 0 in 172 W/m2
14:37 67.6 °F 61 °F 29.9 in NW 2.9 mph 6 mph 79% 0 in 141 W/m2
14:42 67.6 °F 61 °F 29.9 in SE 2 mph 3 mph 79% 0 in 91 W/m2
14:47 67.5 °F 60.8 °F 29.9 in NE 4.9 mph 5 mph 79% 0 in 128 W/m2
14:52 67.3 °F 61 °F 29.9 in NNW 4.9 mph 5 mph 80% 0 in 229 W/m2
14:57 67.3 °F 60.6 °F 29.9 in NW 2.9 mph 5 mph 79% 0 in 200 W/m2
15:02 66.7 °F 60.1 °F 29.9 in NNE 2 mph 6 mph 79% 0 in 128 W/m2
15:07 66.4 °F 59.7 °F 29.9 in NE 2.9 mph 9 mph 79% 0 in 128 W/m2
15:12 65.8 °F 59.2 °F 29.9 in North 0.9 mph 5 mph 79% 0 in 199 W/m2
15:17 65.7 °F 59.4 °F 29.9 in SSW 2 mph 9 mph 80% 0 in 218 W/m2
15:22 65.7 °F 59.4 °F 29.9 in North 2 mph 8 mph 80% 0 in 209 W/m2
15:27 65.7 °F 59.4 °F 29.9 in NNW 2.9 mph 5 mph 80% 0 in 190 W/m2
15:32 65.7 °F 59.4 °F 29.9 in NNW 0.9 mph 4 mph 80% 0 in 188 W/m2
15:37 65.8 °F 59.2 °F 29.9 in SE 4.9 mph 7 mph 79% 0 in 230 W/m2
15:42 66 °F 59 °F 29.9 in WNW 8.9 mph 10 mph 78% 0 in 269 W/m2
15:47 65.8 °F 58.8 °F 30 in NW 4 mph 11 mph 78% 0 in 388 W/m2
15:52 65.7 °F 58.6 °F 30 in NW 0.9 mph 7 mph 78% 0 in 394 W/m2
15:57 65.7 °F 58.3 °F 30 in NW 4.9 mph 11 mph 77% 0 in 221 W/m2
16:02 65.5 °F 57.7 °F 30 in ESE 0.9 mph 9 mph 76% 0 in 193 W/m2
16:07 65.3 °F 57.9 °F 30 in NNW 2.9 mph 3 mph 77% 0 in 221 W/m2
16:12 65.5 °F 57.7 °F 30 in NW 2 mph 9 mph 76% 0 in 272 W/m2
16:17 65.5 °F 57.7 °F 30 in WNW 4 mph 7 mph 76% 0 in 244 W/m2
16:22 65.7 °F 57.6 °F 30 in NW 0.9 mph 6 mph 75% 0 in 267 W/m2
16:27 65.8 °F 57.7 °F 30 in NE 2.9 mph 4 mph 75% 0 in 283 W/m2
16:32 66.2 °F 57.7 °F 30 in NE 4 mph 5 mph 74% 0 in 380 W/m2
16:37 66.6 °F 57.6 °F 30 in ESE 0.9 mph 6 mph 73% 0 in 390 W/m2
16:42 66.7 °F 57.4 °F 30 in ENE 4 mph 6 mph 72% 0 in 373 W/m2
16:47 66.7 °F 57 °F 30 in ENE 0.9 mph 7 mph 71% 0 in 323 W/m2
16:52 66.9 °F 57.2 °F 30 in NNE 2.9 mph 5 mph 71% 0 in 322 W/m2
16:57 67.3 °F 57.6 °F 30 in NNE 2 mph 5 mph 71% 0 in 318 W/m2
17:02 67.5 °F 57 °F 30 in SW 0.9 mph 9 mph 69% 0 in 283 W/m2
17:07 67.5 °F 57.4 °F 30 in NNW 0.9 mph 3 mph 70% 0 in 278 W/m2
17:12 67.5 °F 57.4 °F 30 in East 0.9 mph 3 mph 70% 0 in 276 W/m2
17:17 67.6 °F 57.6 °F 30 in NE 0.9 mph 4 mph 70% 0 in 318 W/m2
17:22 67.8 °F 57.7 °F 29.9 in ENE 0.9 mph 4 mph 70% 0 in 322 W/m2
17:27 68 °F 57.9 °F 29.9 in NE 4 mph 6 mph 70% 0 in 302 W/m2
17:32 68.2 °F 58.1 °F 29.9 in NNW 2 mph 5 mph 70% 0 in 364 W/m2
17:37 68.2 °F 58.1 °F 29.9 in NNW 0.9 mph 2 mph 70% 0 in 339 W/m2
17:42 68.4 °F 57 °F 29.9 in NNE 2 mph 6 mph 67% 0 in 237 W/m2
17:47 68.2 °F 57.2 °F 29.9 in NE 0.9 mph 3 mph 68% 0 in 243 W/m2
17:52 68.2 °F 56.8 °F 29.9 in Calm   3 mph 67% 0 in 244 W/m2
17:57 68.4 °F 56.5 °F 29.9 in SSE 2.9 mph 8 mph 66% 0 in 631 W/m2
18:02 68.7 °F 56.5 °F 29.9 in ENE 2.9 mph 6 mph 65% 0 in 543 W/m2
18:07 69.3 °F 56.5 °F 29.9 in Calm   4 mph 64% 0 in 545 W/m2
18:12 69.6 °F 56.5 °F 29.9 in NNE 2.9 mph 8 mph 63% 0 in 503 W/m2
18:17 69.6 °F 55.9 °F 29.9 in ENE 6.9 mph 9 mph 62% 0 in 496 W/m2
18:22 69.4 °F 55.9 °F 29.9 in North 6.9 mph 7 mph 62% 0 in 462 W/m2
18:27 69.4 °F 55.9 °F 29.9 in East 2.9 mph 9 mph 62% 0 in 394 W/m2
18:32 69.3 °F 54.9 °F 29.9 in NNE 2 mph 9 mph 60% 0 in 396 W/m2
18:37 69.3 °F 55.2 °F 30 in ENE 2.9 mph 3 mph 61% 0 in 357 W/m2
18:42 69.1 °F 53.6 °F 30 in Calm   6 mph 58% 0 in 332 W/m2
18:47 69.1 °F 53.6 °F 30 in NNW 2.9 mph 4 mph 58% 0 in 292 W/m2
18:52 69.1 °F 53.2 °F 30 in ENE 2 mph 10 mph 57% 0 in 216 W/m2
18:57 69.1 °F 53.2 °F 30 in ENE 2 mph 5 mph 57% 0 in 70 W/m2
19:02 69.1 °F 53.6 °F 30 in East 2 mph 10 mph 58% 0 in 70 W/m2
19:07 69.3 °F 53.4 °F 30 in ENE 2.9 mph 6 mph 57% 0 in 74 W/m2
19:12 68.5 °F 52.2 °F 30 in NNE 2.9 mph 8 mph 56% 0 in 77 W/m2
19:17 68 °F 51.8 °F 30 in ENE 2.9 mph 9 mph 56% 0 in 74 W/m2
19:22 67.5 °F 51.6 °F 30 in North 2.9 mph 5 mph 57% 0 in 72 W/m2
19:27 67.5 °F 51.6 °F 30 in ENE 4 mph 5 mph 57% 0 in 69 W/m2
19:32 67.5 °F 51.3 °F 30 in ENE 2 mph 5 mph 56% 0 in 63 W/m2
19:37 67.3 °F 51.1 °F 30 in NE 4 mph 7 mph 56% 0 in 62 W/m2
19:42 67.3 °F 51.4 °F 30 in ESE 0.9 mph 5 mph 57% 0 in 60 W/m2
19:47 66.7 °F 51.1 °F 30 in WNW 6.9 mph 7 mph 57% 0 in 58 W/m2
19:52 66.6 °F 51.3 °F 30 in NNE 6 mph 9 mph 58% 0 in 54 W/m2
19:57 66.4 °F 51.6 °F 30 in SE 4 mph 8 mph 59% 0 in 79 W/m2
20:02 66.2 °F 51.4 °F 30 in Calm   3 mph 59% 0 in 149 W/m2
20:07 66 °F 51.3 °F 30 in ENE 2.9 mph 6 mph 59% 0 in 54 W/m2
20:12 66 °F 51.3 °F 30 in Calm   6 mph 59% 0 in 54 W/m2
20:17 65.8 °F 51.1 °F 30 in NNW 2.9 mph 6 mph 59% 0 in 49 W/m2
20:22 65.7 °F 50.9 °F 30 in ESE 2.9 mph 7 mph 59% 0 in 51 W/m2
20:27 65.7 °F 50.9 °F 30 in North 2.9 mph 5 mph 59% 0 in 58 W/m2
20:32 65.7 °F 51.4 °F 30 in NNW 2.9 mph 5 mph 60% 0 in 46 W/m2
20:37 65.3 °F 50.5 °F 30 in East 2 mph 4 mph 59% 0 in 54 W/m2
20:42 65.1 °F 50.9 °F 30 in NNE 2 mph 2 mph 60% 0 in 51 W/m2
20:47 64.9 °F 51.1 °F 30 in NNE 4 mph 7 mph 61% 0 in 46 W/m2
20:53 64.8 °F 51.4 °F 30 in NNE 0.9 mph 8 mph 62% 0 in 39 W/m2
20:58 64.6 °F 51.3 °F 30 in NNW 0.9 mph 3 mph 62% 0 in 25 W/m2
21:03 64.4 °F 51.6 °F 30 in NE 4 mph 4 mph 63% 0 in 21 W/m2
21:08 64.2 °F 51.8 °F 30 in ENE 0.9 mph 2 mph 64% 0 in 25 W/m2
21:13 64 °F 52 °F 30 in North 2.9 mph 6 mph 65% 0 in 26 W/m2
21:18 64 °F 52 °F 30 in NNW 0.9 mph 4 mph 65% 0 in 21 W/m2
21:23 63.9 °F 52.3 °F 30 in ENE 2.9 mph 3 mph 66% 0 in 16 W/m2
21:28 63.7 °F 52.2 °F 30 in ENE 0.9 mph 4 mph 66% 0 in 12 W/m2
21:33 63.5 °F 52 °F 30 in SE 2.9 mph 6 mph 66% 0 in 9 W/m2
21:38 63.3 °F 52.2 °F 30 in SE 2.9 mph 3 mph 67% 0 in 7 W/m2
21:43 63.1 °F 52.3 °F 30 in SSE 2.9 mph 4 mph 68% 0 in 5 W/m2
21:48 62.8 °F 52.5 °F 30 in East 2 mph 3 mph 69% 0 in 5 W/m2
21:53 62.6 °F 52.3 °F 30 in East 2 mph 4 mph 69% 0 in 0 W/m2
21:58 62.4 °F 52.5 °F 30 in ESE 2 mph 2 mph 70% 0 in 0 W/m2
22:03 62.4 °F 52.5 °F 30 in ESE 0.9 mph 2 mph 70% 0 in 0 W/m2
22:08 62.2 °F 52.7 °F 30 in ENE 0.9 mph 4 mph 71% 0 in 0 W/m2
22:13 62.1 °F 52.5 °F 30 in East 2 mph 3 mph 71% 0 in 0 W/m2
22:18 62.1 °F 52.9 °F 30 in East 0.9 mph 2 mph 72% 0 in 0 W/m2
22:23 61.9 °F 52.7 °F 30 in ENE 0.9 mph 1 mph 72% 0 in 0 W/m2
22:28 61.5 °F 52.7 °F 30 in ESE 2 mph 2 mph 73% 0 in 0 W/m2
22:33 61.5 °F 52.7 °F 30 in ESE 0.9 mph 1 mph 73% 0 in 0 W/m2
22:38 61.3 °F 53.1 °F 30 in East 2 mph 3 mph 74% 0 in 0 W/m2
22:43 61.3 °F 53.1 °F 30 in East 0.9 mph 2 mph 74% 0 in 0 W/m2
22:48 61.3 °F 53.1 °F 30 in Calm   2 mph 74% 0 in 0 W/m2
22:53 61.2 °F 53.2 °F 30 in East 0.9 mph 1 mph 75% 0 in 0 W/m2
22:58 61.2 °F 53.2 °F 30 in East 0.9 mph 1 mph 75% 0 in 0 W/m2
23:03 60.8 °F 52.9 °F 30 in Calm   2 mph 75% 0 in 0 W/m2
23:08 60.6 °F 53.1 °F 30 in Calm   1 mph 76% 0 in 0 W/m2
23:13 60.4 °F 53.2 °F 30 in East 0.9 mph 1 mph 77% 0 in 0 W/m2
23:18 60.3 °F 53.1 °F 30 in Calm   1 mph 77% 0 in 0 W/m2
23:23 60.1 °F 53.2 °F 30 in Calm     78% 0 in 0 W/m2
23:28 59.7 °F 52.9 °F 30 in East 0.9 mph 1 mph 78% 0 in 0 W/m2
23:33 59.5 °F 53.1 °F 30 in Calm     79% 0 in 0 W/m2
23:38 59.4 °F 52.9 °F 30 in Calm   1 mph 79% 0 in 0 W/m2
23:43 59.2 °F 53.1 °F 30 in East 0.9 mph 1 mph 80% 0 in 0 W/m2
23:48 59 °F 52.9 °F 30 in East 0.9 mph 2 mph 80% 0 in 0 W/m2
23:53 58.8 °F 53.1 °F 30 in Calm   1 mph 81% 0 in 0 W/m2
23:58 58.6 °F 52.9 °F 30 in Calm     81% 0 in 0 W/m2
Juneau County Weather
Compliments of Weather Underground - 4 mb